Location: *
(46.1333°S, 161.2167°W)
Time: 08:51:44
(UTC+00:00)

Cosmos 2298 Rocket - Pass Details

Date: 30 October 2020
Orbit: 776 x 783 km, 74.0° (Epoch: 04 December)

Event Time Altitude Azimuth Distance (km) Brightness Sun altitude
Exits shadow 11:07:35 70° 179° (S) 844 4.2 -29.2°
Drops below altitude 10° 11:12:24 10° 160° (SSE) 2,376 7.5 -29.0°
Sets 11:14:49 0° 158° (SSE) 3,312 8.5 -29.0°
